Lid_Strength_Index
4 6 5 4 1 0 0 0 0 -0 -1 -0 -0 -0 -0 -0 -1 -1 -0 -0 0 -0 0 1 0 -1 1 1 1 1 1 2 3 2 1 0 -0 -0 -1 -1 -1 -1 -2
3 5 5 4 1 1 0 0 -0 0 -0 -0 -0 -0 -0 -0 -1 -0 -0 0 1 1 1 0 0 0 -0 0 1 1 1 1 2 3 1 1 0 -0 -0 -1 -1 -1 -1
2 4 5 4 2 1 0 0 -0 0 -0 -0 -0 -0 -0 -0 -0 -0 -0 0 0 0 -0 0 0 0 1 1 2 2 2 2 2 3 2 1 1 0 0 -1 -1 -1 -1
2 3 5 4 3 1 0 0 0 -0 0 -0 -0 -0 -0 -0 -0 -0 -0 0 0 0 -0 -0 0 1 1 2 2 2 2 2 2 2 2 2 2 0 0 2 1 -0 0
2 2 3 4 3 1 1 0 0 0 0 -0 -0 -0 -0 -0 -0 -0 0 1 1 1 1 1 1 2 3 3 3 2 2 3 3 3 3 3 3 3 2 2 3 1 0
2 2 1 1 2 1 1 1 0 0 0 0 0 0 0 0 5 5 3 1 2 3 2 2 1 2 3 4 4 3 3 3 3 4 4 4 4 4 3 2 2 3 3
2 1 1 1 1 1 1 1 1 1 0 1 0 0 0 -0 7 7 7 3 3 2 2 2 3 3 3 3 4 4 4 4 4 3 4 4 3 3 3 3 2 2 3
2 2 1 1 1 1 1 1 1 1 1 1 1 0 0 1 8 9 8 3 3 2 2 2 3 3 3 4 4 3 3 2 3 3 3 3 2 2 2 2 3 2 2
2 2 1 1 1 1 2 1 1 1 1 1 1 1 2 2 9 9 7 4 3 3 3 3 3 4 6 8 5 5 4 3 4 6 6 6 7 7 6 3 4 4 4
3 2 1 1 1 1 1 1 1 1 1 2 3 3 6 4 9 10 8 4 4 4 4 4 6 5 8 9 6 6 7 5 5 5 5 5 6 5 7 4 4 5 5
4 4 4 2 1 1 2 3 3 3 4 5 5 4 5 5 5 9 9 6 6 5 5 5 4 8 9 9 9 6 7 6 7 7 6 6 6 5 5 4 3 3 4
5 5 5 6 6 5 5 5 5 5 6 5 6 5 5 4 7 8 10 10 8 6 6 5 5 8 9 9 9 8 9 9 8 8 8 7 7 6 5 4 3 2 2
5 6 6 6 5 6 6 6 6 6 5 6 6 6 5 5 4 8 10 10 10 8 6 7 9 9 9 9 9 9 9 8 8 9 9 8 8 7 6 5 4 2 1
5 6 6 6 7 6 6 7 7 7 6 6 6 6 5 6 5 4 5 5 8 7 7 6 7 8 9 8 8 7 7 7 8 8 9 8 8 8 8 6 6 5 4
5 6 7 8 8 8 8 7 7 7 7 6 6 7 7 7 6 9 9 8 7 7 9 8 7 6 6 6 6 6 6 6 7 8 9 10 10 10 10 8 7 7 7
4 6 7 8 7 7 9 9 12 11 11 12 12 10 7 10 11 12 12 12 11 11 9 9 8 8 7 7 7 7 6 7 8 8 9 10 11 11 11 10 9 8 8
4 5 6 8 8 8 9 8 8 10 10 10 11 12 12 12 11 12 12 12 11 10 7 8 8 8 7 7 7 7 7 8 8 9 9 10 10 11 12 11 10 10 9
4 7 5 6 6 6 7 7 7 7 6 6 10 10 11 12 12 12 12 11 6 7 7 8 8 7 7 7 7 8 9 10 10 10 10 10 9 10 11 11 11 11 10
4 4 5 6 6 6 6 6 6 6 6 6 6 8 9 11 11 12 12 8 9 8 8 8 7 7 7 8 9 10 10 11 10 10 10 9 9 9 10 11 11 13 12
4 7 6 6 6 5 5 6 6 6 6 7 7 7 6 7 7 8 8 8 9 8 8 8 8 8 9 10 10 11 11 11 11 11 10 10 10 9 9 10 10 11 11
3 4 8 5 5 5 5 5 5 6 7 7 7 7 13 10 9 9 9 9 8 8 8 9 9 10 10 11 11 11 11 11 11 11 11 10 10 10 9 9 10 10 10
3 4 4 5 5 5 5 5 6 7 7 7 7 7 13 9 9 9 9 8 8 8 9 9 10 11 11 11 11 11 11 11 11 11 10 8 8 8 9 9 9 10 9
4 3 4 4 5 7 6 7 7 7 7 7 7 8 9 9 9 9 8 8 8 9 10 10 11 11 11 11 10 10 11 11 10 8 7 8 8 8 8 9 9 9 10
4 5 4 4 5 6 7 7 7 9 7 7 7 7 7 7 7 8 8 9 10 10 10 10 10 11 11 11 10 10 10 9 7 4 5 7 8 9 8 9 9 9 9
5 4 4 5 7 7 7 7 7 7 7 7 7 7 7 7 7 7 8 9 10 10 11 10 11 11 11 11 10 10 10 14 10 7 3 4 5 8 9 9 9 8 7
5 6 8 8 7 7 8 8 8 8 9 8 8 7 7 7 7 8 8 8 10 11 11 11 11 11 11 11 10 13 14 13 10 13 5 4 4 3 5 6 6 6 6